N2308E KPVU-KPVU

Flight info

Callsign N2308E
Flight time 0h 25m
Altitude 8000
Route JUKOM
Aircraft C172/L-VGD/C

Departure

Time 2026-04-26 02:42
Airport Provo Municipal Airport (KPVU)

Arrival

Time 2026-04-26 03:07
Airport Provo Municipal Airport (KPVU)
Time Latitude Longitude Altitude Speed Heading
2026-04-26 02:18 40.22998 -111.72849 4492 ft 0 kts 58°
2026-04-26 02:30 40.23021 -111.72837 4492 ft 6 kts 347°
2026-04-26 02:31 40.23063 -111.72880 4492 ft 9 kts 317°
2026-04-26 02:31 40.23093 -111.72956 4492 ft 6 kts 271°
2026-04-26 02:31 40.23078 -111.72993 4492 ft 4 kts 232°
2026-04-26 02:31 40.23081 -111.73038 4492 ft 7 kts 322°
2026-04-26 02:32 40.23090 -111.73102 4492 ft 8 kts 238°
2026-04-26 02:32 40.23071 -111.73135 4492 ft 0 kts 231°
2026-04-26 02:40 40.23071 -111.73137 4492 ft 0 kts 228°
2026-04-26 02:40 40.23060 -111.73157 4492 ft 9 kts 238°
2026-04-26 02:40 40.23004 -111.73224 4492 ft 9 kts 163°
2026-04-26 02:41 40.22887 -111.73128 4492 ft 44 kts 146°
2026-04-26 02:41 40.22519 -111.72807 4533 ft 74 kts 147°
2026-04-26 02:41 40.22079 -111.72457 4714 ft 73 kts 149°
2026-04-26 02:41 40.21643 -111.72102 4878 ft 75 kts 147°
2026-04-26 02:42 40.21166 -111.71856 5029 ft 77 kts 184°
2026-04-26 02:42 40.20740 -111.72241 5184 ft 78 kts 245°
2026-04-26 02:42 40.20537 -111.72854 5388 ft 72 kts 247°
2026-04-26 02:42 40.20345 -111.73480 5535 ft 74 kts 247°
2026-04-26 02:43 40.19970 -111.74760 5847 ft 76 kts 251°
2026-04-26 02:43 40.19804 -111.75422 6009 ft 76 kts 251°
2026-04-26 02:43 40.19643 -111.76087 6158 ft 76 kts 253°
2026-04-26 02:44 40.19487 -111.76751 6295 ft 79 kts 251°
2026-04-26 02:44 40.19286 -111.77446 6424 ft 82 kts 249°
2026-04-26 02:44 40.19072 -111.78133 6585 ft 81 kts 247°
2026-04-26 02:44 40.18823 -111.78809 6725 ft 83 kts 242°
2026-04-26 02:45 40.18521 -111.79446 6875 ft 83 kts 237°
2026-04-26 02:45 40.18245 -111.80113 7021 ft 82 kts 245°
2026-04-26 02:45 40.17990 -111.80785 7159 ft 83 kts 243°
2026-04-26 02:45 40.17731 -111.81462 7305 ft 83 kts 246°
2026-04-26 02:46 40.17499 -111.82154 7440 ft 83 kts 248°
2026-04-26 02:46 40.17295 -111.82861 7578 ft 83 kts 252°
2026-04-26 02:46 40.17104 -111.83585 7715 ft 83 kts 251°
2026-04-26 02:46 40.16907 -111.84295 7846 ft 84 kts 251°
2026-04-26 02:47 40.16699 -111.85004 7979 ft 84 kts 248°
2026-04-26 02:47 40.16466 -111.85714 8110 ft 84 kts 249°
2026-04-26 02:47 40.16249 -111.86421 8241 ft 84 kts 249°
2026-04-26 02:47 40.16036 -111.87117 8370 ft 83 kts 249°
2026-04-26 02:48 40.15803 -111.87823 8493 ft 84 kts 246°
2026-04-26 02:48 40.15545 -111.88497 8613 ft 84 kts 245°
2026-04-26 02:48 40.15300 -111.89199 8736 ft 84 kts 250°
2026-04-26 02:48 40.15087 -111.89904 8851 ft 84 kts 249°
2026-04-26 02:49 40.14861 -111.90604 8969 ft 84 kts 248°
2026-04-26 02:49 40.14602 -111.91348 9001 ft 94 kts 247°
2026-04-26 02:49 40.14325 -111.92137 9034 ft 98 kts 246°
2026-04-26 02:49 40.14256 -111.93004 9080 ft 98 kts 289°
2026-04-26 02:50 40.14695 -111.93668 9084 ft 101 kts 332°
2026-04-26 02:50 40.15334 -111.94050 9075 ft 101 kts 336°
2026-04-26 02:50 40.15988 -111.94428 9050 ft 103 kts 336°
2026-04-26 02:50 40.16659 -111.94738 9034 ft 105 kts 353°
2026-04-26 02:51 40.17384 -111.94827 9056 ft 102 kts 345°
2026-04-26 02:51 40.18042 -111.95203 9054 ft 104 kts 332°
2026-04-26 02:51 40.18648 -111.95721 9033 ft 106 kts 317°
2026-04-26 02:51 40.19149 -111.96433 9039 ft 104 kts 312°
2026-04-26 02:52 40.19627 -111.97145 9033 ft 105 kts 311°
2026-04-26 02:52 40.20103 -111.97862 9059 ft 104 kts 312°
2026-04-26 02:52 40.20586 -111.98586 9067 ft 106 kts 311°
2026-04-26 02:52 40.21063 -111.99314 9082 ft 106 kts 310°
2026-04-26 02:53 40.21538 -112.00073 9066 ft 108 kts 310°
2026-04-26 02:53 40.22020 -112.00813 9035 ft 106 kts 312°
2026-04-26 02:53 40.22522 -112.01532 8980 ft 107 kts 314°
2026-04-26 02:53 40.23098 -112.02113 8977 ft 103 kts 334°
2026-04-26 02:54 40.23793 -112.02258 8966 ft 103 kts
2026-04-26 02:54 40.24492 -112.02062 8984 ft 102 kts 12°
2026-04-26 02:54 40.25188 -112.01837 9004 ft 103 kts 14°
2026-04-26 02:54 40.25877 -112.01589 9023 ft 103 kts 14°
2026-04-26 02:55 40.26561 -112.01325 9044 ft 102 kts 15°
2026-04-26 02:55 40.27252 -112.01063 9059 ft 103 kts 15°
2026-04-26 02:55 40.27940 -112.00798 9076 ft 103 kts 16°
2026-04-26 02:55 40.28635 -112.00590 9071 ft 104 kts 10°
2026-04-26 02:56 40.29356 -112.00395 9075 ft 104 kts 12°
2026-04-26 02:56 40.30052 -112.00144 9084 ft 104 kts 22°
2026-04-26 02:56 40.30551 -111.99485 9093 ft 104 kts 60°
2026-04-26 02:56 40.30878 -111.98631 9063 ft 107 kts 63°
2026-04-26 02:57 40.31208 -111.97759 9045 ft 106 kts 61°
2026-04-26 02:57 40.31530 -111.96897 9042 ft 105 kts 64°
2026-04-26 02:57 40.31854 -111.96030 9013 ft 106 kts 62°
2026-04-26 02:57 40.32191 -111.95174 9006 ft 105 kts 61°
2026-04-26 02:58 40.32518 -111.94328 8992 ft 104 kts 62°
2026-04-26 02:58 40.32838 -111.93471 8987 ft 104 kts 62°
2026-04-26 02:58 40.33162 -111.92625 8988 ft 102 kts 62°
2026-04-26 02:58 40.33468 -111.91773 8967 ft 104 kts 64°
2026-04-26 02:59 40.33763 -111.90926 8890 ft 101 kts 64°
2026-04-26 02:59 40.34039 -111.90068 8713 ft 103 kts 63°
2026-04-26 02:59 40.34361 -111.89225 8552 ft 102 kts 63°
2026-04-26 02:59 40.34650 -111.88372 8395 ft 102 kts 66°
2026-04-26 03:00 40.34926 -111.87524 8233 ft 102 kts 64°
2026-04-26 03:00 40.35128 -111.86623 8056 ft 104 kts 86°
2026-04-26 03:00 40.35044 -111.85706 7899 ft 103 kts 105°
2026-04-26 03:00 40.34765 -111.84830 7723 ft 102 kts 115°
2026-04-26 03:01 40.34419 -111.84008 7487 ft 103 kts 119°
2026-04-26 03:01 40.34051 -111.83215 7268 ft 101 kts 123°
2026-04-26 03:01 40.33585 -111.82556 7040 ft 100 kts 147°
2026-04-26 03:01 40.33007 -111.82096 6897 ft 91 kts 149°
2026-04-26 03:02 40.32475 -111.81677 6766 ft 88 kts 147°
2026-04-26 03:02 40.31960 -111.81255 6619 ft 86 kts 148°
2026-04-26 03:02 40.31469 -111.80837 6484 ft 85 kts 147°
2026-04-26 03:02 40.30970 -111.80420 6354 ft 85 kts 145°
2026-04-26 03:03 40.30483 -111.79987 6229 ft 85 kts 145°
2026-04-26 03:03 40.30011 -111.79542 6152 ft 83 kts 142°
2026-04-26 03:03 40.29531 -111.79076 6056 ft 87 kts 141°
2026-04-26 03:03 40.29049 -111.78597 6008 ft 84 kts 141°
2026-04-26 03:04 40.28581 -111.78158 5906 ft 83 kts 144°
2026-04-26 03:04 40.28103 -111.77707 5787 ft 84 kts 144°
2026-04-26 03:04 40.27631 -111.77277 5656 ft 83 kts 145°
2026-04-26 03:04 40.27150 -111.76839 5519 ft 83 kts 143°
2026-04-26 03:05 40.26651 -111.76448 5376 ft 84 kts 152°
2026-04-26 03:05 40.26165 -111.76051 5265 ft 82 kts 147°
2026-04-26 03:05 40.25675 -111.75642 5163 ft 82 kts 145°
2026-04-26 03:05 40.25211 -111.75212 5067 ft 82 kts 143°
2026-04-26 03:06 40.24751 -111.74776 4975 ft 80 kts 143°
2026-04-26 03:06 40.24283 -111.74329 4818 ft 84 kts 144°
2026-04-26 03:06 40.23815 -111.73943 4746 ft 68 kts 151°
2026-04-26 03:06 40.23423 -111.73618 4658 ft 66 kts 142°
2026-04-26 03:07 40.23044 -111.73269 4551 ft 66 kts 145°
2026-04-26 03:07 40.22727 -111.72983 4492 ft 42 kts 145°
2026-04-26 03:07 40.22533 -111.72812 4492 ft 26 kts 144°
2026-04-26 03:07 40.22414 -111.72707 4492 ft 16 kts 145°
2026-04-26 03:08 40.22318 -111.72621 4493 ft 18 kts 144°
2026-04-26 03:08 40.22250 -111.72516 4495 ft 11 kts 62°
2026-04-26 03:08 40.22282 -111.72451 4495 ft 6 kts 53°
2026-04-26 03:08 40.22287 -111.72442 4495 ft 0 kts 54°
2026-04-26 03:09 40.22289 -111.72439 4495 ft 2 kts 54°
2026-04-26 03:09 40.22305 -111.72408 4495 ft 6 kts 55°
2026-04-26 03:09 40.22343 -111.72386 4495 ft 8 kts 335°
2026-04-26 03:09 40.22407 -111.72440 4495 ft 2 kts 327°
2026-04-26 03:10 40.22477 -111.72503 4495 ft 22 kts 326°
2026-04-26 03:10 40.22625 -111.72633 4493 ft 25 kts 327°
2026-04-26 03:10 40.22747 -111.72742 4492 ft 17 kts 324°
2026-04-26 03:10 40.22823 -111.72810 4492 ft 9 kts 326°
2026-04-26 03:11 40.22883 -111.72856 4492 ft 10 kts
2026-04-26 03:11 40.22937 -111.72784 4492 ft 11 kts 42°
2026-04-26 03:11 40.22950 -111.72764 4492 ft 0 kts 50°